Volver al catálogo

NOAA 16 DEB

ActivoSSO
NORAD 42398·DEBRIS·🇺🇸 United States

Lanzado Sep 21, 2000 desde Vandenberg Space Force Base

Loading…

Próximos Pases (próximas 24 horas)

TLE

ActualizadoSource: Space-Track

Época: Sep 13, 2026, 05:49 UTC

1 42398U 00055SS  26256.24263799  .00001634  00000-0  82224-3 0  9994
2 42398  98.6585 259.1938 0030130 341.1200  18.8855 14.17564330541610

Sigue NOAA 16 DEB en tiempo real con AllMySat

Download on the App Store